{"data":{"norad_id":47799,"intl_designator":"2021-018N","name":"STARLINK-2380","alt_names":[],"object_type":"PAYLOAD","status":"ACTIVE","operator":null,"country":"US","launch_date":"2021-03-11","launch_site_code":"AFETR","launch_vehicle":null,"mission":null,"orbit_class":"UNKNOWN","rcs_meters":null,"size_class":null,"mass_kg":null,"dimensions":null,"purposes":["comms"],"wikipedia_slug":null,"has_3d_model":false,"image_url":null,"decayed_at":null,"tle_current":{"epoch":"2026-09-20T03:09:31.161888Z","epoch_age_seconds":57517,"freshness":"FRESH","line1":"1 47799U 21018N   26263.13161067 -.00000707  00000+0 -11012-4 0  9996","line2":"2 47799  53.1606  47.2488 0001343  93.1184 266.9971 15.31691903306657","mean_motion":15.31691903,"eccentricity":0.0001343,"inclination_deg":53.1606,"raan_deg":47.2488,"arg_perigee_deg":93.1184,"mean_anomaly_deg":266.9971,"bstar":-1.1012e-5,"rev_number":30665,"period_min":94.013684944054,"perigee_km":469.84432464561,"apogee_km":471.68393948968,"semimajor_km":6848.9011320676,"source":"CELESTRAK","updated_at":"2026-09-20T09:00:38.746392Z"}}}